Theta_e
350 351 350 348 349 352 357 359 358 359 356 344 343 347 345 346 348 347 350 351 352 351 347 345 344 344 346 349 351 350 349 351 350 349 349 347 347 348 347 347 348 350 350 350 349 349 349 349 350 349 348 348 348 347 346 345 346 347 347 346 345 344 344 344 342 342 341 340 340 341 342 340 340 339 338 337 336 335 335 335 334 333 332 332 331 331 332 333 333 333 335 336 335 336 336 336 336
352 353 352 351 354 359 360 359 357 356 349 341 343 346 345 346 348 349 351 351 352 350 347 346 347 347 347 347 347 347 349 351 348 347 347 346 348 348 347 347 348 350 350 349 348 348 347 348 349 348 347 347 348 347 346 345 345 346 346 346 346 345 345 343 342 341 340 340 340 341 341 340 340 339 337 336 335 334 335 334 333 332 331 329 329 331 333 333 333 334 335 335 336 337 337 337 337
354 353 353 352 357 360 359 358 351 344 343 341 340 344 346 347 349 350 350 349 350 349 348 348 348 348 347 348 348 348 349 348 346 346 347 347 347 347 347 347 348 349 349 350 348 347 347 347 347 346 346 348 348 348 345 344 344 344 344 345 345 345 345 344 343 342 341 341 341 341 340 340 340 339 337 335 334 335 335 334 332 330 328 328 331 333 333 333 334 334 334 335 336 338 339 338 337
356 355 355 355 359 360 362 368 361 343 339 340 339 343 346 347 349 349 349 349 348 348 348 348 348 347 347 349 348 348 349 347 345 346 347 346 347 348 348 347 348 348 348 349 347 348 347 347 347 346 346 347 348 346 344 344 344 343 343 342 343 344 344 343 343 342 342 341 341 341 340 340 339 338 337 335 334 334 335 333 330 328 328 331 333 334 333 334 334 334 333 334 336 338 338 337 337
359 359 359 360 362 361 364 368 361 344 338 341 339 342 346 345 346 345 346 347 347 347 347 347 349 347 347 348 348 348 349 347 346 345 347 347 347 348 348 347 347 346 347 347 346 347 347 347 347 346 345 346 346 344 345 345 344 344 343 342 342 342 342 343 343 342 342 341 341 340 340 340 339 338 336 334 334 334 332 331 329 329 330 332 334 334 334 334 334 334 333 335 336 337 337 336 336
360 361 359 361 361 358 362 351 340 338 338 342 340 343 346 342 343 344 344 346 345 346 346 347 347 347 347 348 347 348 347 346 346 346 346 346 347 347 348 347 346 346 345 345 346 347 347 347 346 346 345 344 345 344 345 345 344 343 343 342 342 342 342 342 341 341 341 341 340 340 339 339 338 337 335 333 333 332 330 330 331 331 332 333 333 334 334 333 333 333 333 334 336 336 336 336 336
358 359 358 362 360 356 359 342 334 337 335 340 343 344 344 343 344 343 343 344 345 345 345 345 344 346 349 348 348 348 347 345 345 346 346 346 346 347 347 347 346 346 345 346 346 346 347 347 347 347 345 344 344 345 344 344 344 342 342 342 342 342 342 341 341 341 341 341 340 340 339 338 338 336 334 333 332 332 332 332 332 332 332 333 333 332 332 332 332 333 334 335 336 337 337 336 336
357 357 355 361 357 350 350 337 335 339 337 341 343 343 344 344 344 343 344 343 345 345 345 347 344 349 351 350 350 349 346 345 344 345 346 345 346 346 346 346 346 345 345 345 345 346 347 346 346 346 344 344 344 344 343 343 343 342 341 342 343 344 343 342 341 341 340 340 340 339 339 339 338 336 336 335 334 334 334 333 333 333 333 333 332 332 332 333 334 335 335 336 337 338 338 337 337
354 354 352 355 350 344 342 335 336 340 341 343 342 344 344 344 344 345 345 345 346 346 348 348 346 351 352 351 351 348 346 346 344 345 345 345 345 345 345 345 345 345 345 344 344 345 346 346 345 344 344 343 342 342 342 343 342 342 342 342 343 343 343 342 341 341 340 340 340 339 338 339 338 337 337 336 335 335 335 334 334 333 332 332 332 333 334 335 335 336 337 338 338 339 339 339 338
350 353 350 350 352 341 333 335 337 337 340 341 342 343 343 344 345 345 346 347 347 348 349 347 348 352 351 351 351 348 347 346 344 345 345 344 344 344 344 344 344 344 344 343 343 344 346 346 345 345 344 342 341 341 342 342 343 343 344 344 344 343 342 342 341 341 340 340 340 339 338 338 339 339 338 338 336 335 334 334 333 333 333 334 334 335 335 336 337 338 338 338 338 338 338 339 339
349 353 347 347 355 342 331 335 335 335 335 336 340 341 344 346 346 346 348 349 348 349 349 348 350 351 351 352 352 349 347 347 345 346 346 345 344 344 344 343 343 344 344 343 342 343 345 346 346 345 344 342 341 341 341 342 342 343 343 343 343 342 341 341 341 341 340 340 339 339 339 339 339 339 339 337 336 335 334 334 334 334 335 336 336 337 337 337 338 338 338 337 337 336 336 338 339
348 349 351 350 353 345 335 336 335 336 336 338 341 342 346 345 347 348 348 350 349 350 348 348 350 349 352 353 352 349 347 347 346 346 347 346 345 344 343 343 344 344 344 343 343 344 345 345 344 344 342 342 341 341 341 341 342 342 342 341 340 340 340 340 340 340 339 338 338 338 338 338 338 338 337 336 335 334 334 335 336 337 337 338 338 338 339 339 339 339 338 337 336 335 336 337 338
346 346 360 351 346 348 338 337 338 340 340 341 343 343 347 345 347 347 347 349 348 349 348 348 348 349 352 353 351 348 348 347 347 347 347 347 346 344 343 343 344 344 344 343 343 344 345 344 343 343 342 342 342 342 341 342 341 340 340 339 339 339 339 339 339 338 338 337 336 336 337 337 338 337 337 336 334 334 335 337 338 339 339 339 340 339 340 340 340 340 339 338 337 337 336 336 337
346 342 362 352 345 352 339 338 340 339 340 341 343 345 347 345 346 347 347 347 346 349 348 347 347 349 352 353 352 349 348 348 346 348 348 347 347 345 343 342 343 344 343 342 342 343 345 344 343 344 343 342 341 341 342 341 341 340 339 338 338 339 339 338 338 337 337 336 337 336 337 338 338 337 336 335 335 336 336 338 338 339 339 340 340 340 340 340 340 340 340 339 339 339 337 336 336
346 339 361 360 347 348 341 341 338 336 339 340 344 345 346 346 346 346 345 347 348 348 346 348 348 349 352 352 352 349 348 348 347 348 348 347 347 346 344 343 343 343 342 341 341 342 343 343 343 343 342 342 342 342 342 342 342 340 339 339 339 339 338 338 338 338 337 337 337 337 338 338 337 336 336 336 336 337 338 338 338 339 339 340 340 340 340 340 340 340 340 341 342 342 340 339 339
344 339 357 358 343 342 342 341 336 337 338 338 344 345 346 345 345 345 346 347 348 347 345 348 346 345 350 350 349 348 348 349 349 348 347 348 347 346 345 344 344 343 342 342 342 343 342 343 343 343 342 342 343 342 343 343 342 340 339 339 340 340 339 339 339 339 339 338 337 337 337 337 336 336 337 337 337 338 338 339 339 340 340 339 339 340 341 340 341 341 342 343 344 344 342 341 340
340 340 351 350 342 341 342 342 337 337 337 336 341 344 345 345 345 347 347 346 346 347 346 347 345 343 349 349 347 347 349 349 349 348 348 348 347 346 346 346 346 345 344 343 344 344 343 343 343 343 343 343 343 343 344 343 342 341 339 340 341 341 341 341 341 340 339 339 338 338 337 336 336 337 337 337 339 340 340 341 341 342 341 340 341 342 342 342 342 343 344 344 344 344 343 342 341
342 346 348 344 345 343 343 344 338 337 337 336 340 344 345 345 347 347 347 346 345 347 346 347 346 346 349 348 346 348 349 349 348 348 347 346 345 345 345 345 345 344 344 344 344 344 343 343 343 343 342 343 343 343 343 342 342 342 340 341 341 342 342 342 342 341 340 339 339 338 337 336 337 338 340 340 340 341 342 343 343 344 343 342 342 342 343 344 343 343 344 344 345 345 343 342 341
343 348 347 345 346 342 339 341 338 337 338 337 341 343 344 345 347 347 347 346 346 346 347 348 349 350 350 348 348 350 349 349 348 346 344 343 343 343 343 344 343 343 343 343 343 342 342 342 342 342 341 342 342 342 342 342 342 342 341 341 341 341 342 342 342 342 341 340 340 338 338 337 337 339 341 341 341 342 345 346 346 345 345 343 343 343 344 344 343 342 343 342 342 342 341 339 339
342 342 346 349 344 338 339 338 338 338 337 338 340 342 344 345 346 347 346 346 345 346 348 349 350 352 352 351 351 350 351 351 349 346 343 341 342 342 342 342 342 342 341 341 341 340 340 340 341 340 340 341 341 341 341 341 341 341 341 341 342 341 341 341 341 342 341 341 340 339 338 338 337 338 340 341 343 345 347 347 347 346 345 343 343 343 344 343 342 341 342 342 340 340 339 338 339
339 341 346 347 339 338 340 339 339 338 339 339 339 341 344 345 347 346 346 346 345 346 348 348 350 352 353 353 351 351 353 353 350 347 343 342 342 342 342 341 341 341 342 341 340 340 339 338 339 338 338 338 338 339 339 340 340 340 340 341 341 341 340 341 341 341 342 342 342 340 339 338 338 339 340 341 344 346 346 347 347 347 345 343 343 343 343 342 341 341 341 341 341 340 340 340 341
338 338 340 339 337 340 340 339 340 339 339 340 338 341 344 345 346 345 345 346 345 346 348 346 347 349 351 352 351 352 354 352 351 348 345 343 342 343 342 342 341 342 342 341 340 338 336 336 336 336 336 336 337 339 339 339 339 339 339 339 340 340 339 340 341 342 342 342 343 343 341 341 341 340 340 342 344 344 345 346 347 348 347 346 344 344 344 343 342 342 342 342 342 342 342 342 342
337 336 334 336 338 339 339 340 339 339 339 339 339 342 344 344 345 344 344 345 344 345 347 347 346 347 348 350 350 352 353 352 352 350 347 345 345 345 343 342 341 342 342 339 337 335 334 335 336 336 336 338 338 340 340 339 338 339 340 340 338 338 339 341 341 342 344 345 345 345 343 342 341 340 342 343 343 343 343 344 346 347 347 346 344 344 345 345 344 343 343 343 343 344 344 344 344
334 336 334 336 339 340 340 340 339 340 341 340 341 342 343 343 344 344 343 343 344 347 348 347 347 349 350 350 351 353 352 352 351 351 349 347 346 345 345 343 341 342 341 338 335 333 334 335 336 336 336 339 341 341 341 339 338 339 340 340 338 337 338 340 341 344 345 345 345 345 343 341 341 342 343 342 341 341 341 342 342 343 342 342 342 343 344 345 345 345 344 344 344 344 344 343 343
333 336 336 336 339 340 341 341 340 341 342 342 343 343 343 343 344 345 345 346 346 348 349 348 350 350 351 352 353 353 352 352 352 352 350 348 346 346 347 345 342 342 341 340 337 336 336 334 334 334 334 339 342 343 342 338 337 338 340 340 339 337 338 339 341 344 344 345 344 344 342 341 342 343 343 342 340 340 341 340 340 340 341 341 342 343 344 345 346 346 346 345 345 344 343 343 343
334 337 337 337 339 340 341 342 342 344 344 344 346 346 345 344 346 347 346 347 348 349 349 349 351 352 353 353 354 353 352 353 353 352 352 350 349 349 349 347 344 344 342 342 342 343 343 338 337 338 338 341 343 342 341 339 337 338 339 339 339 339 338 339 340 341 343 345 346 344 342 341 344 345 344 343 341 341 341 340 340 341 342 343 344 345 345 346 347 346 346 346 345 345 344 344 344
334 338 337 337 339 340 342 343 344 345 344 346 348 349 346 345 349 351 347 348 349 351 351 351 352 352 353 353 353 353 352 353 353 352 352 352 352 352 351 349 347 348 346 345 345 346 346 343 342 342 341 343 343 342 341 340 338 337 337 338 339 340 338 338 340 342 344 345 345 344 341 342 345 346 346 345 344 343 342 341 342 343 344 345 346 347 348 349 348 348 348 347 346 345 345 344 343
335 338 338 339 340 341 342 343 344 346 346 346 348 349 348 347 350 350 347 348 351 352 352 352 352 353 353 353 353 353 353 353 352 351 352 351 352 352 352 350 348 350 350 348 347 346 346 345 344 344 343 344 345 344 343 342 340 339 340 340 340 341 340 339 342 344 344 343 342 342 341 343 345 346 347 347 347 345 343 343 344 343 343 344 345 347 348 347 347 348 348 348 347 345 344 342 340
336 338 341 342 342 343 342 344 345 345 347 347 348 350 350 351 350 348 347 350 351 352 353 353 353 354 353 353 353 353 353 353 352 351 351 350 350 350 350 349 347 348 350 350 349 347 345 345 346 347 346 346 346 344 343 343 342 342 344 344 344 344 343 342 343 343 343 343 342 342 343 345 344 344 346 348 348 346 345 345 344 341 340 343 345 344 343 342 343 345 346 345 344 341 339 335 332
338 338 341 343 344 344 344 344 345 345 347 346 349 352 353 352 348 347 348 349 351 351 352 352 353 354 353 353 353 353 353 352 352 352 350 350 349 350 349 348 347 347 349 350 350 349 348 348 348 348 347 346 345 344 342 342 342 343 345 346 346 346 346 344 343 343 343 343 343 343 344 345 344 344 345 347 348 347 347 346 343 340 339 339 339 338 338 339 339 339 339 339 337 334 331 330 329
340 339 340 343 341 342 343 344 346 346 346 344 350 353 352 351 347 347 348 348 349 349 350 350 351 353 354 354 354 353 353 352 352 352 350 349 349 350 349 349 348 348 349 349 348 348 348 349 348 349 348 347 346 345 344 342 341 343 345 346 346 347 347 346 346 345 345 343 343 343 342 343 343 345 346 348 348 347 348 346 344 342 338 334 334 334 336 336 333 332 332 332 331 331 329 329 328
338 336 334 338 339 340 342 341 344 348 345 344 350 352 349 350 347 346 347 347 348 348 347 348 348 351 352 353 354 353 353 352 353 352 350 349 349 350 349 348 348 347 348 348 346 348 349 350 350 351 351 351 350 348 346 344 342 344 346 348 348 348 348 347 346 346 346 344 343 343 343 343 343 345 347 349 349 348 346 346 345 342 337 334 333 334 335 332 330 329 330 331 331 330 329 328 328
335 336 331 333 337 337 340 340 341 344 345 343 347 351 349 350 348 347 348 347 347 347 346 347 346 349 350 350 352 352 353 352 352 352 350 349 348 349 348 348 348 346 346 346 346 348 350 351 352 353 351 351 351 349 347 346 345 346 346 347 348 347 347 346 345 345 345 344 345 345 344 344 344 346 348 349 348 347 346 346 343 339 335 334 335 335 334 331 329 329 330 332 332 330 328 328 329
331 334 331 332 336 335 337 340 339 341 345 344 346 350 351 350 348 346 348 346 346 346 345 346 346 346 348 348 349 351 351 351 351 350 349 348 348 348 349 348 348 347 347 347 347 347 350 351 351 350 350 350 351 349 348 347 346 346 345 347 348 347 346 345 345 344 344 344 344 345 344 344 345 348 348 348 347 346 345 341 338 336 335 334 334 333 332 332 332 333 335 336 335 332 328 327 328
329 330 329 330 334 335 336 339 340 341 344 345 347 351 350 349 348 347 347 347 346 345 344 345 346 346 347 347 347 348 349 350 349 349 348 347 348 348 348 348 348 348 348 348 348 349 350 350 348 348 348 349 349 349 349 347 346 345 344 345 346 345 345 344 345 344 344 344 344 345 346 347 348 349 348 348 346 343 340 337 336 335 333 331 334 335 335 335 336 337 339 338 337 335 331 328 330
333 333 331 330 332 333 337 340 340 342 343 345 348 349 349 349 349 347 347 347 346 346 345 346 346 346 346 346 347 346 348 348 347 347 347 348 349 349 349 349 349 349 349 349 350 350 351 349 349 348 347 347 349 350 349 346 345 344 343 343 342 342 343 343 344 344 345 345 346 347 347 348 349 349 348 346 344 340 337 336 335 333 329 328 333 336 337 338 339 339 338 336 335 335 332 330 332
334 333 331 331 332 333 337 341 340 341 343 344 346 346 348 349 349 347 347 347 346 345 345 346 347 347 346 346 346 346 346 346 346 346 346 348 349 349 349 349 349 349 349 349 349 350 350 350 350 348 346 347 348 347 346 344 343 344 343 342 341 342 343 344 344 346 347 349 349 349 349 349 349 348 345 343 340 338 335 333 332 330 328 328 329 333 335 337 337 335 333 332 332 332 332 332 334
332 332 332 330 330 332 336 341 340 340 343 345 346 345 347 349 349 347 346 346 346 345 345 346 347 347 347 346 346 346 347 345 346 346 346 347 348 348 348 349 349 349 350 350 350 350 349 351 350 346 345 345 344 343 342 342 341 341 341 342 344 345 346 346 347 348 349 350 348 347 347 347 347 346 344 340 339 336 331 329 328 328 327 328 329 331 332 331 330 330 331 331 330 330 332 333 334
329 332 331 330 333 335 333 339 341 339 343 345 347 346 345 348 348 346 346 346 347 346 346 347 348 348 347 347 347 347 347 346 346 346 346 347 347 348 348 349 349 349 350 350 349 350 350 351 348 343 345 345 341 341 341 340 340 341 343 345 347 348 347 346 347 348 346 344 342 340 341 342 342 342 340 337 335 332 329 330 330 330 329 329 331 330 329 328 329 330 331 331 329 330 332 334 333
330 330 328 330 337 334 329 335 340 340 343 343 347 348 345 346 347 346 345 345 347 346 346 347 347 349 348 348 348 348 348 347 347 347 347 348 348 348 348 349 350 350 349 349 350 350 351 351 346 341 344 344 340 342 341 340 342 344 345 346 347 347 347 346 344 341 339 337 337 337 337 338 338 336 335 333 333 332 333 333 332 331 330 330 330 328 327 329 330 331 330 330 329 330 333 333 331
331 330 327 330 336 334 332 334 337 343 344 342 346 345 344 348 347 346 345 343 345 345 345 346 347 348 349 349 348 348 349 348 347 348 348 349 349 349 349 349 350 349 350 349 350 350 350 351 346 341 342 342 341 343 342 343 345 346 346 346 347 346 345 345 342 337 337 335 335 335 334 334 334 333 333 333 333 334 334 332 328 328 330 330 329 328 329 330 330 330 329 329 328 329 332 333 330
329 330 329 330 334 337 337 336 335 338 338 341 344 339 343 352 349 346 346 344 344 343 342 343 345 347 348 348 348 348 349 348 348 348 349 350 349 349 349 349 349 349 349 349 350 349 350 350 346 341 341 340 341 342 343 345 347 346 347 346 345 344 343 342 340 337 336 335 334 334 333 333 333 333 335 335 335 334 332 328 326 328 329 330 330 331 331 330 329 329 329 329 329 328 330 331 330
325 333 334 329 331 334 334 334 334 331 333 341 341 338 343 346 344 346 346 345 344 343 342 342 343 346 347 347 348 348 348 349 348 349 350 350 349 349 349 349 349 349 348 349 350 350 350 349 344 341 340 338 339 342 345 346 346 346 346 345 344 342 340 339 339 338 337 336 336 335 334 334 334 334 335 335 333 331 329 328 330 329 328 330 331 329 328 327 327 328 329 328 328 328 327 328 327
328 337 335 331 331 332 334 334 332 334 338 341 341 344 344 340 340 345 346 345 346 345 344 342 341 343 346 347 347 348 348 348 349 350 351 350 349 349 348 349 349 349 349 349 350 350 350 348 343 341 340 336 337 341 345 347 346 345 345 345 344 343 340 339 339 338 338 337 336 335 335 334 334 334 333 331 330 330 331 332 331 329 329 330 329 327 327 327 327 328 328 327 327 327 327 326 326
333 335 332 331 330 330 334 333 331 335 338 336 339 341 340 343 349 347 344 346 345 344 344 343 341 342 344 346 347 348 348 347 348 350 350 350 349 348 349 348 349 349 349 349 350 349 350 347 342 341 339 335 337 341 344 345 343 344 344 343 343 342 340 340 341 340 338 337 336 336 335 334 334 332 331 329 329 330 331 331 329 329 330 329 328 327 327 327 327 328 327 327 327 327 327 327 328
331 330 328 329 332 330 332 334 333 334 334 333 337 335 332 342 352 345 341 343 343 343 343 341 342 342 343 345 346 347 348 348 348 349 350 349 349 349 349 349 349 350 349 348 348 348 348 344 340 340 337 335 337 338 339 338 338 338 339 339 339 338 337 338 339 339 338 338 337 335 334 334 333 331 329 328 328 328 329 329 328 329 330 327 326 327 327 328 328 328 328 327 328 328 327 327 328
328 330 326 328 338 341 341 345 340 333 332 332 335 335 331 335 343 342 340 342 343 342 342 341 341 342 343 345 346 347 348 348 349 350 350 349 349 349 348 349 350 349 348 347 347 347 344 339 338 337 335 335 336 333 332 333 333 333 333 333 334 333 333 336 336 337 337 336 335 334 333 332 330 327 325 324 325 328 330 329 329 330 328 325 325 326 326 327 328 327 327 326 326 327 328 327 328
327 332 327 324 337 342 339 340 333 328 331 334 334 336 331 329 338 344 341 341 342 342 342 341 340 341 343 344 346 347 348 348 350 350 350 350 350 350 350 350 351 349 346 345 346 347 340 336 336 335 333 335 333 330 330 332 333 331 329 328 328 326 330 333 333 333 333 333 333 333 330 328 324 322 321 321 324 327 329 329 329 328 325 323 324 324 324 326 326 325 326 326 325 327 327 327 329
326 331 327 321 327 329 325 329 328 327 332 335 334 334 331 332 341 345 342 341 341 340 340 340 339 340 342 344 346 347 348 349 350 351 351 351 351 351 350 350 351 348 344 343 347 346 338 335 334 332 333 333 330 329 330 332 332 331 327 324 323 323 325 326 324 325 326 327 328 325 322 320 319 319 321 321 322 324 324 324 325 325 322 322 323 322 323 326 326 325 325 325 325 325 326 327 328
325 328 325 321 323 321 321 328 328 326 329 330 332 335 333 334 342 346 343 341 340 338 339 338 338 340 341 343 346 347 348 348 350 351 350 351 350 351 351 351 351 348 343 344 346 343 337 334 332 330 331 330 327 329 331 331 332 329 325 322 320 321 322 320 318 319 319 319 319 317 316 316 317 319 321 321 320 320 321 322 323 322 321 320 320 321 323 324 325 325 324 324 324 324 325 327 328
327 332 330 324 326 324 323 327 326 323 326 326 328 336 334 331 341 350 341 337 339 338 338 338 338 340 341 342 344 346 348 349 349 351 350 351 351 350 351 352 352 349 344 344 344 339 336 333 329 329 329 328 327 329 331 331 331 329 324 322 321 320 320 319 317 316 316 315 315 316 316 317 318 320 322 321 320 320 320 321 322 321 321 319 320 321 322 323 324 324 323 324 325 326 326 327 328
326 332 329 323 330 332 325 327 330 327 325 324 328 337 341 338 344 354 344 337 339 338 338 339 337 340 341 341 344 346 348 349 350 350 350 351 351 351 352 351 352 350 345 345 343 337 332 329 327 328 326 326 327 328 330 330 329 327 324 321 320 320 320 318 316 315 315 315 317 317 317 318 320 321 322 321 320 321 322 322 321 321 321 320 321 322 323 324 324 324 324 325 326 328 328 329 329
327 326 325 326 331 332 325 324 329 326 322 328 330 330 335 335 340 355 352 344 344 342 340 339 337 339 340 341 344 344 347 349 349 350 351 351 352 352 352 351 352 350 346 345 342 334 328 326 325 326 327 328 328 329 329 329 328 326 324 322 320 321 319 317 316 315 315 315 316 317 318 319 320 320 320 320 321 322 322 322 322 323 323 323 323 323 323 324 325 325 325 326 327 328 328 328 328
329 322 325 330 328 333 334 327 326 325 324 329 329 325 327 328 336 355 355 349 349 346 342 340 338 339 340 341 344 343 345 348 349 350 350 351 353 352 352 352 352 350 346 344 340 333 326 324 325 326 328 328 328 329 329 329 328 326 324 324 321 320 320 317 316 315 315 316 317 317 317 318 319 319 318 319 320 322 322 324 324 325 326 325 323 323 322 323 324 324 324 325 325 326 327 328 328
326 324 328 329 324 327 332 327 325 325 325 328 328 329 331 330 338 352 353 355 355 346 343 343 341 340 340 341 343 343 345 347 348 351 351 352 353 352 352 351 351 351 346 343 342 335 326 324 325 326 327 328 329 330 330 330 329 326 325 324 322 320 320 317 315 316 315 316 317 317 317 318 318 319 319 321 323 324 324 324 325 325 325 324 324 323 322 321 322 322 323 324 325 326 327 327 327
326 326 326 328 329 328 327 326 327 326 327 332 330 327 331 339 349 357 358 362 354 345 346 345 340 340 339 341 343 342 344 345 347 349 350 351 352 352 351 351 350 350 347 344 343 337 331 326 325 326 328 330 331 331 331 331 331 328 327 328 327 322 320 318 315 315 316 316 317 317 317 318 320 321 324 325 326 327 327 326 325 325 325 326 325 323 323 323 323 324 324 325 326 327 327 326 326
324 324 324 324 327 329 328 329 330 328 331 337 332 326 337 355 358 357 361 362 349 345 346 343 340 340 340 341 342 342 343 344 346 347 348 350 351 351 352 350 350 350 349 347 345 340 335 330 328 328 329 332 334 333 333 333 333 331 330 333 332 324 320 319 316 315 316 316 317 317 317 320 322 324 326 327 328 328 328 328 327 327 327 327 325 325 325 326 326 326 327 327 328 328 328 328 327
326 324 325 325 325 326 324 324 327 328 330 336 332 324 337 358 355 354 358 356 346 344 343 343 340 339 340 342 342 342 343 343 345 346 347 349 350 350 351 351 351 352 351 348 347 345 340 335 332 329 330 333 334 335 335 334 335 335 333 336 337 328 320 319 317 316 316 316 317 317 318 321 324 326 327 327 328 328 328 328 327 327 328 327 326 326 326 327 326 327 327 327 328 328 328 328 327
Wind_Speed
16 14 13 13 11 7 4 3 1 2 3 3 2 2 3 4 5 5 4 6 5 2 9 16 16 15 10 10 12 12 12 3 2 2 5 10 14 14 17 20 18 21 25 25 25 25 25 25 25 25 25 25 24 24 24 24 24 25 25 24 25 25 25 24 23 22 21 20 20 20 19 18 18 18 18 18 18 17 16 15 14 14 13 12 11 10 9 8 7 7 7 5 4 4 4 4 5
15 14 13 12 10 6 2 1 2 2 4 4 2 2 4 4 5 5 4 5 5 7 19 22 19 17 15 16 13 11 13 8 7 12 16 17 18 17 20 21 20 22 26 26 25 24 25 25 24 25 25 25 24 23 23 23 24 25 26 25 24 25 24 23 23 22 21 20 20 19 19 18 18 18 18 19 18 17 16 15 14 13 12 11 10 9 9 8 7 6 5 4 3 4 4 4 5
13 13 13 13 10 5 1 0 2 2 4 4 2 3 5 6 6 6 7 11 14 20 25 21 17 13 11 10 7 7 7 11 20 23 21 20 20 22 22 22 22 23 26 28 27 25 26 25 24 25 25 25 24 23 23 24 24 25 26 25 24 23 23 23 22 21 20 19 19 19 18 18 18 18 18 18 17 16 15 14 14 13 11 10 9 8 8 7 6 5 4 3 3 3 3 4 5
13 12 12 12 8 4 1 2 2 4 4 3 3 5 7 8 8 7 10 15 17 19 19 14 10 8 12 11 9 11 9 15 24 24 22 22 23 25 24 23 23 24 26 27 28 27 26 25 24 24 24 24 24 24 24 25 25 25 25 24 23 22 23 22 21 20 20 19 18 18 18 18 18 19 18 18 17 15 15 14 13 12 11 10 9 8 7 6 5 3 2 2 3 3 3 3 4
14 12 11 11 6 1 0 2 1 3 3 3 3 5 8 9 10 9 11 14 11 11 13 11 8 10 16 10 4 8 11 18 22 23 24 24 25 26 25 24 25 26 26 27 28 28 27 26 24 23 24 24 24 24 24 24 25 24 23 23 21 21 22 21 21 20 19 19 18 18 18 18 18 19 18 18 17 16 15 14 13 12 11 10 8 7 5 4 3 2 1 2 2 2 3 3 3
16 14 12 11 4 2 0 2 2 2 2 4 6 6 9 9 11 13 15 16 13 12 14 15 14 15 13 9 9 12 13 18 21 23 25 26 27 27 26 26 26 27 26 27 27 28 27 26 25 23 24 24 24 23 23 24 24 23 22 22 21 21 21 20 20 20 19 19 19 18 18 18 18 18 18 18 17 15 14 13 12 12 11 9 7 5 3 2 2 2 1 1 1 2 2 3 3
17 13 10 8 5 2 2 4 4 2 0 4 8 8 9 10 15 17 14 14 14 14 17 19 23 20 9 8 13 9 8 17 23 25 26 27 27 27 27 27 27 27 26 26 26 27 26 25 25 24 23 23 23 22 22 23 23 23 21 21 20 20 20 20 20 20 19 18 18 18 18 18 17 17 17 16 15 14 13 13 13 12 10 8 6 4 3 2 1 1 0 1 1 2 3 3 3
16 10 6 4 1 1 3 4 3 2 2 4 9 12 13 15 18 14 7 10 9 10 17 18 22 19 6 7 9 6 13 19 23 25 27 27 27 27 27 27 27 27 27 26 26 26 24 24 24 24 23 22 22 22 22 22 22 21 20 20 19 19 19 19 19 19 18 18 18 18 18 17 17 16 16 15 14 14 13 13 12 10 8 6 5 3 2 1 0 1 1 2 2 2 3 3 3
16 8 3 2 2 3 3 3 2 3 4 7 10 13 17 18 18 15 9 10 11 13 16 12 13 14 8 11 11 11 15 17 24 26 27 27 26 26 26 27 27 28 27 26 26 25 24 23 23 23 23 22 21 21 21 20 19 19 19 18 18 18 18 18 18 18 18 18 18 17 16 16 16 15 15 14 14 13 13 11 10 8 6 4 3 2 1 0 2 2 3 3 3 3 3 4 4
15 9 2 0 2 4 4 3 3 4 6 9 10 15 19 18 18 18 13 10 14 14 10 7 12 18 16 13 10 10 14 20 26 26 26 27 27 26 26 26 26 27 27 26 26 25 24 22 22 22 21 21 20 20 20 19 19 18 18 18 18 17 17 17 17 17 17 17 16 16 15 15 15 15 14 14 13 12 11 9 7 5 3 2 1 0 1 1 2 3 4 4 5 5 5 5 5
9 7 3 1 2 4 4 3 4 4 6 7 9 16 20 23 21 16 16 12 13 16 13 13 15 22 19 11 9 10 18 24 25 26 26 27 27 27 26 26 25 25 25 25 25 25 24 22 22 21 20 20 20 20 19 19 18 18 18 17 17 17 17 17 17 17 17 16 15 15 14 14 14 14 13 13 12 10 8 6 4 3 2 1 1 1 2 3 4 4 5 5 6 7 7 7 6
4 3 2 3 2 3 4 4 6 5 7 7 7 13 21 26 20 12 15 12 13 18 15 11 13 21 14 6 10 15 23 24 24 26 25 26 27 27 26 26 25 25 25 25 25 24 23 23 22 21 20 20 20 19 18 18 17 17 17 16 16 16 16 16 16 16 16 15 14 14 13 13 13 12 12 11 10 8 6 4 3 2 2 2 2 3 4 5 5 5 5 6 7 8 8 8 7
7 2 4 3 2 4 4 5 6 7 6 6 8 15 23 22 18 17 16 14 17 15 9 12 20 19 10 8 15 20 25 24 23 24 24 26 26 26 26 26 25 25 24 25 24 24 23 23 22 21 20 19 19 18 17 16 16 16 16 16 15 15 15 15 15 15 15 14 13 13 12 12 11 11 10 9 8 7 5 4 3 3 3 3 3 4 5 5 6 6 7 7 8 8 8 8 8
11 2 4 3 2 3 4 5 5 7 3 4 11 19 21 16 21 26 21 16 11 12 13 18 24 17 12 14 16 23 26 25 24 23 24 24 25 26 26 25 25 24 24 24 24 23 23 22 22 21 20 19 18 17 16 15 15 16 15 15 15 14 14 14 14 14 13 13 12 12 11 11 10 9 8 8 7 6 5 4 4 3 3 3 3 4 5 6 6 7 7 7 7 8 8 8 8
15 5 4 3 2 2 3 4 6 7 4 5 15 20 16 16 27 28 26 17 6 19 22 19 20 13 14 15 16 29 29 26 25 23 24 23 24 25 25 25 24 24 24 24 23 23 23 22 21 20 19 18 17 17 16 16 15 15 14 14 14 13 13 13 13 12 12 11 11 11 10 9 8 8 7 7 7 5 4 4 3 2 3 4 5 6 6 7 7 7 7 7 7 6 5 6 7
16 6 5 3 2 3 3 5 6 7 4 7 17 23 14 15 25 21 21 20 17 26 20 20 16 4 17 19 22 34 29 28 26 24 24 22 24 24 24 25 24 24 24 24 23 23 22 21 21 19 19 17 17 17 16 16 15 14 14 13 13 13 12 12 12 11 11 10 10 10 9 8 8 8 8 7 6 4 3 3 3 3 4 5 6 6 7 7 7 7 7 8 7 4 4 5 5
12 4 4 2 3 4 4 6 6 7 7 9 17 24 16 10 15 13 15 23 28 23 12 18 13 7 22 21 26 34 28 29 26 25 25 23 25 25 25 24 24 24 24 24 23 23 22 21 21 19 18 17 17 16 16 16 15 14 14 14 13 13 12 11 11 11 11 10 10 9 9 9 8 8 6 6 5 3 2 3 3 4 5 5 6 7 7 7 7 7 7 8 8 7 6 6 6
5 1 3 3 3 4 5 6 7 9 9 11 18 25 21 13 14 17 17 20 25 18 11 15 10 13 22 21 30 31 28 29 27 28 26 26 27 26 27 25 25 25 25 24 23 23 22 21 21 19 18 17 17 16 16 16 15 15 14 14 13 13 13 12 12 11 11 10 10 10 10 9 8 6 6 6 5 2 1 2 3 3 4 6 6 7 7 6 7 7 7 7 7 7 6 6 6
4 3 2 4 5 5 6 9 10 13 15 15 19 25 23 19 22 23 16 15 18 15 14 16 16 19 21 26 32 27 28 29 27 29 27 28 29 28 29 27 27 26 25 25 23 23 22 21 21 19 18 17 17 16 16 16 15 15 14 14 14 13 13 12 12 11 11 10 10 10 9 9 8 6 6 5 4 2 1 1 2 2 3 5 6 6 6 6 6 6 6 6 6 6 6 5 5
5 5 2 5 6 4 7 15 16 21 24 19 18 21 21 24 27 23 17 15 14 13 17 20 20 24 28 31 32 30 30 28 28 29 28 29 29 29 29 28 29 27 26 24 23 23 21 21 20 19 18 17 16 15 15 15 15 15 14 14 13 13 12 11 11 10 10 10 10 9 9 8 7 7 6 4 3 3 2 0 1 1 2 5 5 5 5 5 5 5 5 5 5 5 5 5 4
4 6 5 6 6 4 10 19 21 27 31 24 20 18 17 25 27 23 22 14 7 13 25 30 29 32 34 34 34 33 31 29 30 28 28 30 28 29 28 28 27 25 25 23 23 22 22 21 19 19 17 17 16 15 14 14 14 14 14 13 12 12 11 10 10 9 9 9 9 9 9 9 8 7 5 4 4 3 2 1 0 1 2 5 6 5 5 4 5 5 5 5 6 6 6 6 5
3 7 10 9 9 6 11 22 26 28 30 25 21 17 19 25 22 26 29 15 11 22 30 35 37 38 38 38 37 35 33 32 31 29 30 29 29 29 26 26 25 24 25 24 24 22 22 21 19 18 17 16 15 15 14 13 14 14 14 13 12 12 11 11 10 9 9 9 9 9 10 9 8 6 5 5 3 2 2 1 1 2 3 5 6 7 6 6 5 4 5 5 5 6 7 8 8
4 7 9 14 16 10 13 24 28 28 26 21 19 20 25 22 16 29 31 17 23 32 33 35 38 40 39 40 39 37 36 34 33 31 31 30 29 28 26 26 25 25 25 24 24 22 22 20 19 19 17 17 16 15 14 14 15 14 14 14 13 13 12 12 10 10 9 9 9 10 10 9 7 6 6 5 3 2 1 0 1 3 4 5 6 8 8 8 8 7 7 7 7 7 7 8 9
7 6 6 18 23 16 19 26 28 29 26 22 23 24 24 20 16 25 21 13 24 31 31 36 37 39 39 39 39 39 37 35 33 31 29 30 28 26 25 25 24 24 24 24 24 23 22 20 19 19 18 17 16 16 15 14 14 14 15 14 13 13 13 12 11 10 9 9 9 10 10 8 7 7 6 5 3 2 1 2 3 4 5 7 8 8 9 9 9 9 9 10 9 8 7 9 9
7 7 7 16 21 20 23 27 28 27 24 24 24 19 18 22 21 17 14 15 25 29 32 35 37 38 38 39 39 38 37 35 33 31 30 29 26 25 24 24 24 24 24 25 24 23 21 20 20 19 19 18 16 16 15 14 13 14 16 15 14 14 14 13 11 11 10 9 10 10 9 8 7 7 6 4 3 2 2 3 5 6 7 9 9 10 11 11 11 10 11 11 12 11 10 12 12
5 9 11 12 17 21 25 25 26 24 23 26 20 11 14 24 20 8 12 23 26 30 34 35 37 38 37 37 37 37 37 35 34 32 30 28 26 25 25 25 25 25 25 24 24 24 22 22 21 19 19 19 17 16 15 14 13 14 16 15 14 14 13 12 11 11 10 11 11 10 10 8 7 7 6 5 3 3 3 4 6 7 9 10 11 11 12 12 12 12 12 13 13 14 15 16 15
6 13 13 15 20 22 25 24 24 23 22 28 20 9 16 23 16 5 13 26 29 33 34 35 37 37 36 35 36 37 36 35 33 31 30 29 28 27 27 27 26 25 25 24 24 24 23 23 21 19 19 19 18 16 15 14 13 14 14 13 14 13 12 12 12 11 11 11 11 11 11 9 8 8 7 6 4 4 5 5 6 8 9 10 11 12 12 12 12 12 13 14 14 16 17 17 16
9 19 11 13 18 17 23 21 23 21 14 27 27 11 12 12 8 11 22 29 32 36 34 35 36 34 35 35 36 36 35 34 32 31 32 31 30 29 28 27 27 25 25 25 23 23 23 22 21 20 19 19 19 17 15 14 13 13 13 13 13 13 12 13 13 11 11 11 12 13 12 10 9 9 8 7 6 5 5 6 7 8 8 9 10 10 10 11 12 12 12 12 12 13 14 14 15
16 22 10 8 11 9 15 15 22 20 11 28 30 10 3 2 6 20 30 32 33 35 34 34 33 33 34 35 36 36 35 34 33 33 32 31 30 29 28 26 25 25 24 23 21 22 23 21 21 20 19 20 18 16 15 14 13 12 12 13 13 13 13 13 13 11 11 11 13 14 13 11 10 9 9 8 7 7 6 7 8 8 9 9 9 8 8 10 10 10 9 8 8 9 11 13 15
15 12 8 8 7 4 8 10 18 17 17 32 23 4 3 3 11 26 32 34 33 31 32 32 31 32 33 34 36 36 35 35 35 34 31 30 30 28 27 24 24 24 23 21 21 23 22 21 20 20 19 19 18 16 16 15 13 13 12 12 12 13 12 12 11 11 11 12 13 14 14 13 11 10 9 9 9 8 7 7 8 9 10 11 11 10 9 8 7 7 7 7 8 9 10 12 13
8 5 3 5 7 5 5 6 13 11 16 24 12 2 6 4 13 28 32 35 34 30 30 31 31 32 32 34 36 36 36 35 34 33 31 30 29 28 26 24 23 24 23 21 21 22 21 20 19 19 18 17 17 16 16 14 13 12 11 11 12 12 12 12 11 11 11 12 13 14 14 13 12 11 10 10 10 9 8 8 8 9 11 12 12 11 9 7 6 6 7 7 8 8 10 11 13
3 4 1 2 6 6 5 6 10 12 14 12 6 3 5 5 15 27 32 34 34 31 29 29 30 32 33 34 36 36 36 34 33 33 32 30 29 29 27 25 24 24 24 22 21 21 20 19 18 18 17 17 17 16 15 13 13 12 12 11 12 12 13 13 13 12 12 12 13 13 13 13 13 11 12 13 12 11 10 10 10 11 12 12 11 9 7 6 6 7 7 7 7 8 9 10 11
3 3 4 5 6 6 4 8 11 13 14 7 3 6 4 5 17 27 32 33 32 29 28 29 30 32 33 34 36 37 35 35 35 34 33 31 30 29 26 25 24 23 24 23 21 21 20 19 18 17 16 16 15 15 15 14 14 13 13 12 12 13 13 13 12 12 12 12 12 12 12 13 13 13 14 14 13 12 10 10 12 12 11 10 8 7 6 7 8 8 7 7 7 7 8 9 10
5 1 5 7 9 10 7 7 12 9 12 7 4 8 7 8 18 28 31 33 31 27 28 30 30 32 34 34 35 36 36 36 37 36 33 31 30 29 27 25 24 23 23 23 21 20 19 18 18 16 15 15 15 15 15 14 14 15 14 14 14 14 13 12 12 11 11 11 11 11 12 13 15 16 15 15 13 11 10 9 11 10 9 8 7 7 6 8 9 8 7 7 7 7 7 8 8
7 4 6 5 8 12 11 10 10 10 9 7 7 7 7 9 17 24 30 33 30 28 30 31 31 33 34 34 34 35 37 38 37 36 33 30 30 29 28 27 25 24 23 23 22 20 19 18 17 16 15 16 16 15 15 15 15 16 16 16 16 14 13 12 11 11 11 11 11 11 13 14 17 18 15 15 12 7 7 8 8 8 8 8 8 7 7 9 10 8 7 6 7 7 8 8 8
9 7 8 9 8 10 12 9 11 14 9 6 10 9 9 12 15 19 27 32 29 28 29 30 31 33 34 35 35 35 38 39 37 35 33 31 31 29 29 28 26 25 23 23 22 21 21 19 18 17 16 17 16 16 16 17 17 17 17 17 15 13 12 10 9 10 10 10 11 12 14 15 18 16 12 11 8 5 6 7 7 8 8 9 8 9 10 10 9 7 7 7 8 8 8 9 9
8 4 5 9 11 9 9 7 10 14 9 6 9 10 12 16 15 18 27 29 25 25 25 27 30 32 33 35 36 37 39 39 36 34 34 32 32 30 29 28 27 26 24 23 23 22 21 20 19 18 17 18 17 17 17 18 18 18 17 15 13 11 10 9 8 8 8 9 12 13 13 13 14 10 6 6 6 5 7 7 8 9 10 11 11 11 11 10 7 7 8 8 9 10 9 9 10
5 3 3 5 8 8 7 7 10 11 6 4 5 8 12 15 15 17 23 23 20 25 26 26 31 32 34 36 37 38 38 37 36 36 36 34 33 31 30 30 28 27 26 25 25 23 22 20 19 19 19 19 18 18 17 17 17 14 12 10 8 8 8 8 8 7 8 10 11 10 8 8 8 6 6 6 6 7 9 10 10 11 12 13 13 12 12 10 8 9 9 9 10 10 10 8 9
3 3 4 3 4 2 3 5 10 10 4 4 7 8 9 12 14 15 20 21 22 30 32 31 34 32 32 36 38 39 37 35 37 38 39 37 35 33 32 31 30 28 26 26 26 24 23 21 19 19 20 19 19 18 18 16 12 10 9 7 6 7 8 8 9 9 10 11 10 8 8 8 8 8 8 8 9 10 12 12 11 12 12 12 12 12 11 10 9 9 9 10 10 10 9 7 7
3 3 5 3 4 3 3 6 11 8 2 4 6 4 2 5 7 9 17 23 22 28 33 32 35 36 37 39 40 40 38 37 38 39 40 39 37 36 34 33 31 29 27 26 26 26 25 22 19 20 20 20 20 19 17 14 11 10 10 9 8 9 10 11 12 12 12 11 10 10 10 10 10 11 11 11 12 13 12 11 12 13 11 11 11 10 10 10 10 10 10 11 11 10 8 5 5
3 4 5 4 5 5 3 5 8 4 4 5 8 4 3 4 7 7 13 18 17 21 26 27 31 37 39 39 39 41 41 40 39 40 41 40 40 38 36 34 33 31 29 27 26 26 26 23 20 20 21 20 20 19 16 14 14 14 13 12 12 13 13 14 14 14 13 13 12 12 11 11 12 12 12 13 13 12 11 12 12 11 10 9 9 8 9 9 9 10 10 10 10 9 8 6 6
3 4 8 8 8 7 6 10 9 4 1 3 8 3 4 4 8 9 8 11 13 15 19 23 28 33 33 33 36 39 40 40 40 40 41 41 40 39 37 35 34 32 30 28 26 25 25 22 21 22 22 21 20 19 17 16 17 17 16 15 15 16 15 15 15 15 14 13 12 12 12 12 12 13 13 13 13 12 12 11 9 7 6 6 6 7 7 7 7 8 8 8 8 8 8 8 8
3 6 8 10 9 7 11 14 11 6 5 7 9 6 3 4 8 11 9 10 13 12 13 21 27 30 30 33 36 38 39 39 40 40 41 41 40 40 39 37 36 33 29 28 26 25 24 23 23 24 23 22 20 19 19 19 19 18 17 16 16 16 15 14 15 15 13 13 13 12 12 12 12 12 13 13 12 11 10 8 6 5 4 5 5 6 6 6 7 7 7 7 7 7 7 9 9
4 6 7 8 8 7 11 14 11 6 3 3 6 3 2 4 8 10 10 9 11 11 12 17 25 30 32 35 38 39 40 41 41 41 41 42 42 41 40 38 36 33 29 29 28 27 25 24 25 26 24 22 21 20 20 20 19 18 17 17 16 16 15 14 14 15 14 13 13 12 11 11 10 11 11 11 10 8 7 5 5 4 4 4 5 5 5 6 6 6 6 6 6 6 7 7 7
7 6 7 7 8 8 9 11 9 6 5 4 6 3 3 4 5 6 9 9 11 15 16 16 23 31 33 36 39 40 42 43 43 44 43 43 43 43 41 38 35 32 30 30 29 28 26 26 27 28 25 24 23 21 21 20 19 18 17 17 16 15 14 14 15 15 15 14 13 12 11 10 9 9 9 8 7 6 6 6 5 4 4 4 4 4 4 4 4 4 4 5 5 5 5 5 4
6 5 5 3 2 4 6 7 5 4 5 8 10 9 4 4 4 5 7 9 13 16 16 16 22 31 34 36 40 41 42 43 43 44 44 44 43 42 40 37 35 33 31 30 29 28 28 28 30 29 27 25 24 23 21 20 19 18 17 16 15 14 14 15 16 16 16 15 14 13 12 12 11 11 10 9 8 8 8 7 6 5 4 5 4 4 4 3 3 3 3 3 4 4 4 3 2
3 2 1 2 3 1 0 1 4 5 4 8 14 16 9 5 4 6 9 13 18 17 14 15 19 28 34 37 40 42 42 43 44 44 44 44 43 42 41 38 36 33 32 31 30 30 30 30 31 31 29 27 26 24 22 21 20 18 16 15 14 14 14 15 16 17 17 17 15 14 14 13 13 12 12 10 9 9 9 8 7 5 5 5 5 5 4 3 3 3 3 3 3 3 3 3 3
4 2 2 1 4 4 4 4 3 5 5 7 13 15 10 7 5 7 13 18 21 18 16 16 19 27 35 38 40 42 43 44 44 44 44 44 44 43 43 41 37 35 34 33 33 32 32 32 32 32 31 30 28 26 25 23 21 19 17 15 14 14 14 16 17 17 18 17 16 16 16 16 14 13 12 10 10 10 10 9 8 6 6 6 6 5 5 5 4 3 3 3 3 3 3 4 3
5 4 5 3 3 2 0 2 1 4 6 6 10 12 7 7 6 9 15 17 19 19 20 22 24 31 37 38 39 39 41 43 44 45 45 45 46 46 46 43 40 38 37 35 35 35 34 34 34 34 33 32 31 29 27 25 23 20 18 16 14 14 15 16 17 17 17 17 17 17 17 15 14 12 10 9 10 11 10 8 7 6 6 7 7 6 6 6 5 4 3 4 4 4 4 5 5
6 6 6 5 4 2 3 3 1 2 6 5 7 10 5 5 5 9 15 20 26 27 30 31 30 36 40 40 40 38 39 42 44 45 45 46 48 48 47 46 43 40 39 37 37 37 36 36 36 36 35 34 33 32 30 27 25 23 20 17 15 15 15 16 18 18 17 17 17 17 15 14 13 11 11 10 10 10 8 7 6 6 7 8 7 7 7 6 6 5 4 4 4 5 5 5 6
6 5 6 6 5 5 4 4 3 4 5 3 3 6 6 4 6 9 13 22 28 28 30 29 28 36 40 37 36 37 38 42 44 45 46 47 49 49 48 47 45 43 40 39 40 39 39 39 39 38 38 37 36 34 32 29 27 25 22 19 17 17 17 18 19 19 18 17 17 16 15 14 12 12 11 11 10 9 8 7 7 7 8 7 7 7 8 7 7 6 6 6 6 6 6 5 6
4 4 5 6 7 6 3 4 6 5 2 0 2 3 5 5 5 5 5 12 17 18 21 21 23 31 32 29 33 37 39 41 44 46 47 48 49 49 49 48 47 45 42 42 42 42 42 43 42 41 41 39 38 36 34 32 29 27 25 21 19 19 20 20 20 19 18 17 16 15 14 13 12 12 12 12 12 10 9 8 8 7 6 6 6 7 8 8 8 8 8 8 7 7 7 7 7
2 4 4 5 7 8 3 3 1 3 2 2 2 3 4 2 5 7 4 3 8 11 15 19 25 29 27 28 34 38 39 42 45 47 48 47 48 48 49 48 48 47 44 44 44 44 45 46 45 44 42 41 39 38 36 34 32 30 27 24 22 22 22 22 21 18 17 16 16 15 14 13 13 13 14 14 13 12 10 9 8 6 5 6 7 8 8 9 9 9 9 10 9 9 9 9 9
5 5 7 4 3 3 3 2 1 3 3 4 3 5 4 3 3 5 3 3 7 10 13 16 20 25 27 31 36 39 42 44 45 47 48 47 48 49 49 49 49 48 46 45 46 46 47 48 47 46 45 44 42 40 38 36 34 32 30 27 25 24 23 22 20 17 16 17 17 15 14 14 13 13 13 13 12 11 9 8 6 6 6 8 9 9 9 10 10 11 11 11 10 10 10 10 10
7 5 6 5 3 2 1 3 3 2 2 3 2 3 3 4 5 4 5 8 9 9 11 12 15 21 27 32 36 39 41 42 43 45 45 46 47 49 50 50 49 49 48 47 47 47 48 49 49 48 47 45 44 42 40 38 36 34 32 30 28 26 23 21 19 18 18 18 17 16 14 13 12 12 12 11 10 8 7 6 5 6 7 9 9 10 10 10 10 10 10 10 9 9 10 10 11
3 2 3 2 3 5 4 3 4 4 4 3 2 2 2 6 7 7 10 11 10 10 10 12 15 23 30 33 35 38 40 41 42 44 45 46 48 50 51 51 50 51 50 49 49 49 49 50 50 50 48 47 46 44 42 41 39 36 34 32 30 28 25 22 20 19 19 18 17 16 14 12 12 13 12 10 8 6 5 5 5 5 6 7 8 8 8 8 8 8 7 7 7 8 10 11 12
3 3 4 2 2 2 2 2 3 4 4 4 3 3 5 6 6 8 10 10 12 14 15 14 17 26 33 34 37 39 41 42 43 45 46 47 49 50 51 52 51 52 52 51 50 50 50 51 51 51 51 49 48 46 44 43 41 39 37 35 33 30 26 23 21 20 19 17 16 15 14 13 13 13 11 9 7 6 5 5 4 4 4 6 7 6 6 7 7 6 6 7 8 10 12 13 14
8 7 7 6 5 4 3 3 2 2 3 5 5 4 7 6 5 8 9 8 11 16 16 14 19 28 33 35 40 42 43 45 45 46 47 47 48 49 50 51 51 51 52 52 52 52 52 53 52 52 52 51 51 49 47 46 44 42 40 38 35 31 27 24 21 20 18 17 16 15 14 14 14 13 11 9 7 6 5 5 4 4 4 5 5 6 6 7 7 7 8 10 11 12 13 15 16
Wind_Direction
170 169 180 186 194 204 248 309 358 351 63 75 57 75 79 95 99 97 99 109 91 41 121 135 140 131 120 116 118 85 46 30 186 116 126 141 146 146 142 139 138 129 123 125 126 126 128 128 128 129 131 132 132 133 133 134 135 137 137 137 137 137 137 138 140 138 139 137 133 134 138 140 139 140 141 143 141 137 135 135 136 136 136 136 135 130 125 121 119 116 115 109 91 67 44 23 20
170 168 179 181 184 186 226 243 78 10 53 66 19 63 91 78 71 88 97 102 102 108 116 119 114 108 109 108 104 76 41 40 124 120 121 141 145 142 141 138 138 130 125 128 127 126 127 127 128 129 132 132 131 132 132 133 134 135 136 138 137 138 140 141 142 142 143 139 136 139 141 141 141 143 146 147 144 140 139 139 140 141 142 142 139 133 127 124 122 120 114 100 76 59 51 28 23
173 173 182 181 184 191 246 245 100 75 71 81 43 48 83 81 74 80 94 105 114 115 112 107 94 93 104 93 63 70 70 89 117 123 127 144 145 142 141 138 139 133 130 130 128 128 128 127 127 129 132 131 131 132 131 131 133 134 136 138 139 140 141 143 145 145 143 140 142 144 143 143 144 146 150 150 146 144 144 144 144 147 148 146 141 133 127 124 121 116 100 73 50 46 54 31 19
170 174 185 184 177 196 295 49 114 106 98 117 71 73 94 98 101 89 98 113 121 116 111 103 75 76 95 93 83 86 104 116 124 129 134 146 143 139 140 139 138 134 133 131 130 131 130 129 129 130 130 128 128 130 129 131 134 135 136 137 140 142 143 145 146 147 147 147 148 146 144 145 147 149 152 152 149 149 149 150 150 149 149 146 139 132 128 125 119 110 87 61 42 43 53 33 11
169 176 183 183 167 240 245 75 83 101 126 155 90 100 115 113 115 103 99 105 110 108 111 111 84 89 91 82 91 100 122 131 133 134 136 143 140 137 138 139 137 134 134 132 131 131 130 130 130 131 129 126 128 130 130 132 134 135 136 138 142 144 144 147 147 148 149 149 148 146 146 146 148 150 153 154 153 154 154 153 151 149 148 145 141 136 135 129 123 114 94 74 57 56 50 29 3
171 177 184 195 221 303 87 84 97 101 184 157 113 124 129 121 119 110 100 89 84 96 105 107 107 105 82 57 89 108 128 137 138 138 139 142 139 137 138 139 137 134 134 132 132 132 132 132 131 131 129 129 130 132 132 133 135 136 139 140 144 145 145 148 147 147 147 146 146 146 146 145 147 150 153 155 156 156 154 152 149 149 150 151 151 151 151 146 148 141 117 76 54 39 24 7 349
178 175 179 205 252 270 87 107 145 120 304 131 127 135 128 122 120 114 105 93 83 93 101 105 113 105 78 85 91 89 129 141 140 140 141 140 139 138 139 140 138 136 136 135 134 134 134 135 134 134 133 132 133 134 135 137 138 139 140 142 145 146 146 149 148 147 146 145 146 146 145 145 146 147 150 152 154 154 152 152 151 153 156 162 165 166 167 164 167 148 3 24 24 4 352 342 336
184 175 174 191 331 43 89 105 149 121 79 100 122 127 126 131 125 117 110 108 97 96 104 110 111 97 84 116 91 103 138 142 139 140 141 139 139 140 141 141 139 138 138 138 137 136 136 137 137 137 137 136 137 137 138 140 141 140 142 145 146 148 148 150 149 147 146 147 147 145 143 143 143 144 146 148 151 152 154 155 156 160 165 171 169 167 168 171 227 352 330 334 333 329 332 327 324
183 179 174 188 60 51 86 82 90 115 114 111 118 124 126 130 121 112 103 95 103 110 111 114 106 99 111 104 100 137 144 145 140 139 141 139 141 142 143 143 141 140 140 141 140 140 140 140 141 140 139 138 140 139 139 141 142 142 145 148 148 150 150 150 151 151 151 150 148 145 144 143 143 145 147 150 153 156 158 160 163 166 169 169 159 155 155 329 326 325 312 305 299 293 299 303 305
180 193 200 144 69 71 89 65 98 113 123 126 127 133 128 123 114 110 108 99 113 112 107 114 107 113 118 100 105 149 151 150 144 141 143 142 144 144 145 146 144 142 142 144 144 143 142 144 144 143 142 142 142 141 141 144 146 148 150 150 150 151 150 151 152 154 155 153 151 149 148 148 149 151 152 154 157 160 161 162 164 162 157 148 141 141 299 300 290 294 295 292 292 292 295 296 302
167 206 234 60 67 90 126 108 119 122 125 122 121 133 128 121 112 104 106 106 115 111 111 111 109 115 112 100 113 149 152 152 148 143 144 145 146 148 149 149 147 146 146 146 147 145 145 148 147 147 148 147 146 146 147 148 151 153 153 152 150 150 150 151 152 154 155 154 152 151 152 153 154 155 155 157 159 160 159 157 153 153 155 172 215 241 257 264 270 280 292 298 304 308 309 310 314
169 193 166 88 112 133 150 127 118 124 126 125 129 135 130 122 113 115 117 116 121 117 124 124 129 125 105 94 128 150 155 154 152 146 146 148 150 152 153 153 152 152 152 151 151 150 150 152 151 152 153 152 152 151 152 151 153 155 153 151 150 150 150 151 151 152 153 153 152 151 153 154 153 155 155 155 155 154 153 155 155 167 191 217 232 242 251 260 274 287 301 310 316 315 313 315 317
210 167 127 86 142 134 126 125 125 125 131 140 142 137 132 124 123 134 126 129 133 126 147 149 141 127 101 121 139 154 158 158 156 150 151 151 154 156 156 157 157 158 158 157 155 154 154 155 156 157 157 157 157 156 156 154 154 155 154 152 150 151 151 151 150 151 152 152 152 152 153 153 154 155 154 153 152 155 162 173 184 196 209 228 241 255 267 275 285 296 307 313 316 313 312 314 315
218 245 127 105 89 118 120 122 133 131 156 157 137 139 136 131 137 138 130 132 139 139 148 150 143 123 116 132 146 163 162 163 159 154 157 156 159 160 161 162 161 163 163 162 160 159 159 161 162 161 162 162 162 162 162 160 157 156 154 153 152 153 154 153 153 153 154 153 153 154 157 157 158 156 156 161 165 174 183 190 198 212 237 260 275 285 289 292 296 297 299 304 306 308 314 316 316
223 256 91 118 76 101 147 145 156 140 165 170 145 144 137 141 144 140 141 138 133 144 138 147 147 125 148 155 164 169 165 165 162 158 160 160 164 164 166 165 165 168 167 167 165 165 164 166 167 166 166 166 168 167 166 166 163 159 156 155 155 156 157 157 156 157 159 158 159 161 163 163 162 166 171 178 184 188 197 211 221 250 298 315 318 312 302 295 296 295 296 297 292 298 320 322 322
224 236 69 103 142 154 167 153 156 140 163 177 154 144 127 144 146 141 152 141 131 145 140 153 158 139 167 166 165 166 163 164 163 161 161 163 167 168 170 168 169 171 170 172 171 171 170 171 173 172 171 170 170 170 170 169 167 165 161 160 160 161 162 161 161 163 166 167 169 170 170 173 175 182 186 191 198 200 214 244 260 284 309 322 327 320 310 302 298 298 301 298 293 315 11 352 343
225 227 72 107 174 182 161 153 163 149 160 167 157 144 128 146 143 132 152 138 137 149 149 160 173 170 162 163 163 161 160 164 163 163 165 166 169 169 172 174 174 175 176 176 176 176 175 177 177 176 175 174 175 174 174 172 169 170 167 167 167 169 171 170 171 172 175 176 178 181 181 186 189 193 195 206 218 219 239 263 269 281 294 312 327 323 318 313 307 305 311 318 329 360 20 3 354
207 129 110 157 185 199 167 163 171 146 150 162 160 151 140 147 137 130 136 130 137 142 137 154 158 152 157 161 159 159 161 164 165 166 168 169 170 172 173 177 179 179 180 179 180 180 180 180 180 180 179 178 180 179 179 176 173 173 173 172 171 174 177 178 181 181 184 185 186 192 193 195 197 201 206 218 229 236 274 274 271 284 299 314 325 322 319 314 308 310 320 333 347 357 357 348 343
177 121 132 207 196 208 172 154 159 147 150 157 160 156 146 144 141 140 139 134 140 128 124 137 131 140 153 158 159 162 163 165 169 169 170 171 172 173 173 176 179 181 181 181 182 182 183 182 182 183 181 180 182 182 182 180 179 178 176 176 175 177 182 185 187 189 191 195 198 203 205 205 206 214 218 223 233 233 242 272 289 308 330 330 327 321 316 312 312 317 322 330 342 344 340 339 337
198 163 168 238 205 208 170 153 158 153 150 152 158 158 144 143 146 146 144 143 149 142 142 143 138 146 153 159 163 164 166 170 172 172 172 173 174 174 174 176 178 180 180 180 181 183 184 183 183 183 183 183 183 184 185 186 185 183 179 181 180 180 186 191 192 193 196 202 207 211 215 216 218 222 228 233 228 213 213 272 333 348 354 345 337 322 311 317 328 329 325 329 343 345 337 336 338
198 178 197 222 179 177 174 158 156 152 151 152 153 151 140 145 148 148 145 140 162 171 163 159 155 156 157 162 165 165 169 173 174 177 176 175 176 176 178 178 178 180 179 181 183 183 183 183 184 183 186 187 186 187 188 191 190 189 186 187 188 187 193 197 199 201 202 208 211 217 221 222 224 224 233 239 224 200 182 186 301 318 347 355 352 338 317 318 329 329 329 332 341 338 330 331 334
193 214 213 192 162 169 178 159 153 153 151 149 149 148 147 150 152 155 153 153 186 182 173 166 161 162 163 165 166 168 171 174 178 180 179 178 179 179 182 182 181 182 183 185 185 184 182 183 186 186 189 190 190 189 188 193 194 195 193 192 195 195 199 202 206 212 214 216 214 219 223 224 223 223 230 233 223 195 168 179 301 294 310 339 347 344 331 318 311 310 321 324 325 323 323 326 328
212 241 218 188 177 172 169 157 154 154 148 148 153 153 151 149 156 165 165 171 179 177 174 169 166 165 165 166 168 171 173 175 178 180 181 180 180 181 182 183 184 185 187 188 187 185 184 185 187 188 190 190 190 189 190 194 195 197 195 197 201 200 204 204 205 212 215 218 217 219 224 228 224 218 218 220 221 205 193 241 311 303 303 318 325 332 329 319 308 302 308 310 307 306 313 318 319
214 243 204 181 178 166 160 156 155 154 150 152 153 150 153 152 158 171 174 173 168 170 172 170 167 165 165 168 171 174 176 177 178 181 182 181 182 182 183 185 184 184 188 189 188 187 187 186 186 187 189 190 190 191 192 194 196 198 196 200 203 205 208 205 206 209 209 215 222 225 228 231 222 210 207 207 218 225 271 299 309 308 305 310 311 315 316 313 307 299 298 301 299 293 300 307 304
216 218 180 167 163 154 153 150 149 148 143 143 140 142 156 155 152 165 171 160 162 165 167 166 164 164 166 170 173 176 178 180 182 183 184 185 185 183 186 188 185 186 189 189 189 187 187 186 185 187 189 190 191 192 192 192 196 198 199 202 205 208 209 207 212 211 208 215 225 231 234 232 219 212 210 211 231 255 294 306 311 308 304 306 306 308 306 305 302 295 290 292 292 284 289 302 301
232 177 157 145 141 147 148 142 140 137 133 131 124 117 138 146 140 135 161 158 161 162 161 163 163 165 168 171 175 179 180 182 184 186 187 188 186 186 189 188 189 191 190 190 191 189 187 187 188 188 189 190 191 192 192 191 195 198 202 206 207 210 211 211 217 216 211 215 224 233 236 232 221 220 220 226 247 276 299 310 312 307 305 305 304 304 303 303 303 299 293 290 289 283 287 300 304
232 150 137 138 139 147 144 135 132 128 131 130 120 110 131 142 139 120 162 158 159 158 158 164 165 167 170 173 177 181 183 184 186 188 190 191 191 191 189 189 193 194 191 193 195 193 190 190 191 190 190 191 192 194 192 192 196 198 203 207 208 212 214 215 218 219 219 222 229 235 239 234 226 226 226 233 251 278 298 309 307 303 304 302 301 300 300 302 302 299 294 291 289 286 289 297 301
174 135 110 130 134 142 140 134 133 124 126 130 121 110 125 140 151 154 160 159 160 157 158 165 167 171 173 176 179 183 187 187 189 191 191 193 193 194 194 194 195 193 194 194 196 197 194 193 193 193 194 194 196 197 195 198 200 200 202 205 209 213 215 218 220 222 225 231 236 238 240 235 232 234 234 239 255 281 299 305 300 299 301 295 295 296 295 296 294 292 291 293 295 293 294 298 299
148 132 104 121 114 136 143 141 142 129 130 133 121 98 107 161 159 156 158 159 161 158 159 167 169 173 175 178 181 185 189 189 192 195 195 195 194 196 198 199 197 195 195 194 198 201 198 197 196 197 198 199 202 202 203 206 206 207 207 206 210 214 217 219 222 227 231 234 237 238 238 239 242 245 245 248 259 278 293 298 298 302 305 300 300 301 296 294 293 294 297 302 305 300 301 301 301
142 126 119 128 98 157 167 153 144 129 143 142 126 111 225 259 157 156 159 159 159 159 163 168 172 176 177 181 184 187 190 191 195 197 197 197 196 199 200 202 201 198 196 195 199 202 202 198 197 200 202 207 209 209 211 212 213 215 215 215 218 221 224 227 229 232 234 235 237 239 241 244 250 254 256 258 262 273 285 292 297 305 307 305 304 305 302 300 301 304 305 303 301 301 305 305 304
127 90 99 135 130 185 221 179 143 126 161 153 123 127 196 208 160 159 162 163 162 163 168 171 174 177 179 183 187 190 192 194 198 199 200 200 201 202 203 205 203 201 200 200 201 204 205 202 200 203 207 214 216 216 218 218 220 222 224 226 228 232 234 237 242 241 239 239 242 244 247 252 258 263 264 263 262 264 271 278 288 299 301 298 296 296 296 297 303 304 298 294 297 305 310 310 310
124 120 152 207 151 174 233 217 164 146 176 175 98 104 183 173 169 166 165 168 167 167 173 175 176 179 181 185 188 191 194 197 200 202 203 203 205 206 206 206 205 206 205 205 205 204 206 206 205 208 213 219 219 221 222 221 224 227 231 232 233 239 241 246 250 251 249 246 248 249 253 260 263 266 264 261 256 256 265 272 279 290 292 287 285 283 281 287 300 300 294 293 298 306 308 310 313
197 162 171 195 157 163 196 223 214 168 166 192 105 132 173 169 175 172 169 172 171 171 177 178 180 182 184 187 190 192 194 197 201 204 206 205 207 208 208 208 208 209 209 211 209 205 207 209 211 215 218 222 222 222 223 223 225 227 232 231 233 236 240 248 253 256 257 254 255 257 259 264 265 265 263 259 255 261 271 272 275 284 286 283 278 274 277 289 298 299 299 302 303 306 309 311 315
215 224 165 191 165 164 172 202 230 197 164 176 143 151 172 169 172 173 174 176 174 176 179 181 184 185 188 190 191 194 195 197 201 204 205 205 207 209 209 211 212 213 213 213 213 210 209 210 214 218 221 223 223 223 224 225 225 228 231 230 232 235 239 246 250 254 257 257 258 259 260 263 265 261 257 258 262 268 270 271 277 282 284 287 282 274 281 289 294 300 302 306 308 312 317 317 316
189 192 174 196 173 174 182 181 195 192 176 162 146 159 168 160 168 175 178 178 178 181 181 183 186 187 189 191 192 195 197 199 202 204 205 206 209 210 210 211 213 215 214 214 214 213 211 213 215 218 220 218 217 221 222 221 223 227 230 231 234 237 242 245 249 253 256 260 261 263 264 264 265 260 255 261 264 258 262 272 277 277 285 291 280 264 271 286 296 303 300 305 312 311 318 324 326
175 190 179 176 179 189 191 182 172 170 167 160 163 165 162 164 172 178 180 182 184 184 183 184 187 188 189 190 192 194 197 200 201 203 205 208 211 210 210 211 213 215 216 215 214 214 215 216 217 221 217 210 211 216 216 217 220 224 228 232 235 238 246 250 256 259 260 266 267 268 267 266 270 271 263 257 248 239 266 280 277 280 296 300 284 263 268 284 295 301 302 309 310 307 318 329 332
161 181 207 185 180 197 199 186 171 164 159 185 182 162 163 172 178 181 180 183 187 186 186 187 188 190 189 190 193 194 198 201 202 204 206 209 211 212 212 212 213 214 216 215 214 215 217 218 221 222 212 205 207 211 215 219 219 223 229 233 239 244 253 258 260 262 263 268 266 266 264 262 267 268 246 224 221 251 282 293 286 288 301 303 293 277 278 288 288 294 306 314 311 311 324 334 330
158 162 213 206 192 197 195 178 171 166 156 187 184 161 174 179 179 182 179 182 191 189 188 190 191 192 192 193 195 198 201 203 203 204 206 209 210 211 213 213 214 214 215 214 214 217 218 220 224 220 209 206 208 212 218 222 223 230 237 242 248 249 252 254 254 255 254 254 254 255 248 240 239 231 224 231 248 278 297 301 294 295 301 300 294 285 287 294 297 304 310 313 311 315 330 340 330
177 151 144 203 243 183 155 176 175 169 157 180 178 173 186 186 182 185 185 189 195 192 191 192 193 193 193 195 197 199 202 202 203 204 205 208 208 210 213 215 216 217 216 215 214 218 218 219 224 218 211 210 212 215 218 220 222 228 233 236 238 238 238 236 233 233 235 235 232 231 229 227 229 234 243 257 272 287 297 298 295 296 296 292 290 289 293 301 310 316 314 313 313 317 330 344 333
186 166 147 192 230 172 169 195 178 168 146 156 160 159 184 185 191 203 201 200 200 197 197 196 195 196 197 200 200 199 200 200 202 204 205 206 208 210 213 215 216 215 215 214 213 216 216 219 224 216 211 213 214 215 215 213 213 215 217 216 219 223 222 219 218 218 223 228 228 230 235 236 238 245 254 265 274 281 285 284 285 286 282 282 286 291 299 305 311 316 316 316 315 315 325 336 329
249 197 182 183 194 197 182 157 157 124 32 103 111 57 333 198 198 219 214 211 213 206 203 202 202 202 202 202 202 201 202 202 202 203 205 206 208 210 213 214 213 212 212 212 212 214 215 220 224 217 211 213 215 214 211 207 207 210 211 211 213 215 215 216 215 216 224 233 237 241 245 246 248 254 261 265 268 269 272 276 279 277 275 279 280 280 285 290 298 305 309 310 308 306 310 316 311
280 232 200 193 198 194 138 129 139 126 306 180 137 131 282 242 207 215 213 213 219 212 206 209 208 207 206 203 203 204 204 204 204 204 205 206 208 208 210 211 210 211 212 212 213 213 216 221 222 218 213 213 215 214 209 207 209 210 211 213 213 213 218 222 222 226 234 240 246 249 250 251 253 257 259 258 259 261 267 273 272 268 268 270 268 267 271 277 287 293 295 298 299 295 293 293 291
248 238 200 196 209 191 148 144 153 168 206 205 173 172 244 253 221 216 210 214 219 214 211 215 212 208 206 204 205 205 204 204 204 205 205 206 207 206 207 208 209 211 213 213 214 214 217 220 218 216 213 211 212 211 209 210 211 213 216 219 219 220 226 233 235 237 239 241 244 246 245 245 244 246 248 251 255 258 262 263 261 265 267 263 270 278 283 289 290 289 289 291 290 286 278 275 279
231 225 170 183 212 200 165 160 172 184 154 169 186 154 115 217 224 207 198 213 224 224 222 218 214 211 208 206 206 206 205 204 203 204 205 205 205 205 206 207 209 212 214 214 214 215 217 218 215 213 212 210 208 209 209 210 213 216 220 224 225 227 233 241 245 245 243 240 239 239 239 239 238 240 246 252 255 254 248 248 262 277 281 279 287 294 296 296 293 290 288 285 281 274 267 267 277
236 209 158 183 212 205 178 171 188 184 133 168 210 169 126 245 249 184 183 209 224 227 226 218 214 212 209 206 207 207 207 206 204 204 205 204 205 206 207 208 209 211 214 215 214 215 216 216 213 211 210 208 207 208 209 211 215 219 224 229 230 233 240 243 245 248 248 243 240 241 244 246 248 252 259 261 255 245 239 247 263 272 284 291 291 293 293 289 286 283 279 279 274 265 264 269 280
229 180 150 150 194 207 186 179 181 153 162 196 201 188 192 261 258 164 173 209 224 227 226 220 214 212 210 207 207 207 207 206 206 205 205 205 206 207 208 209 209 211 214 215 215 214 214 213 211 209 207 206 206 206 208 212 217 222 227 233 237 241 246 245 244 245 245 242 242 246 249 253 259 263 264 260 251 245 244 251 259 263 282 293 291 291 290 276 260 253 252 258 264 268 278 287 291
194 98 129 49 21 1 118 136 117 127 203 218 200 192 192 231 244 186 182 205 214 218 222 219 213 212 212 209 207 206 205 204 204 205 205 206 207 206 207 207 209 211 212 213 213 212 211 209 209 207 204 205 206 206 208 213 217 223 228 235 242 247 249 248 244 240 239 240 242 246 250 255 260 259 255 250 245 241 243 251 258 267 286 294 290 284 274 253 235 230 239 250 269 288 302 310 304
172 112 175 278 331 11 29 11 78 160 224 239 210 197 194 219 241 210 204 211 212 212 213 210 205 209 210 209 208 205 204 203 202 203 204 204 203 203 204 208 209 210 210 210 210 210 208 208 208 206 204 204 206 207 210 214 217 221 226 232 240 246 251 252 248 244 243 243 243 246 249 251 251 247 245 246 239 235 241 252 256 262 280 285 278 270 258 243 236 240 255 273 296 310 315 319 311
150 142 144 180 278 348 22 251 179 202 237 242 199 184 199 235 239 215 210 216 218 214 214 210 202 204 208 207 206 205 203 202 201 202 203 203 203 203 205 208 208 209 208 207 208 207 207 208 207 205 203 203 205 208 210 214 217 219 223 227 233 241 249 251 248 245 243 242 241 242 243 243 241 239 245 249 239 236 243 248 248 252 270 274 265 259 253 245 247 255 264 281 301 311 317 320 312
157 164 161 174 182 170 225 238 264 245 256 256 182 167 204 273 263 220 207 216 219 214 215 215 205 202 207 206 204 203 202 202 202 203 203 204 205 206 207 208 208 208 207 206 206 206 206 207 206 204 203 203 205 209 210 213 217 218 220 222 226 234 241 242 237 232 229 229 229 229 229 229 231 235 244 248 239 236 239 239 242 248 259 261 254 251 250 248 250 250 251 265 284 295 304 315 314
179 164 154 174 170 172 212 214 199 222 249 275 137 155 193 216 233 222 211 221 224 217 218 217 207 206 208 205 200 200 202 202 203 204 205 207 207 208 209 209 208 208 206 204 204 205 206 206 204 203 202 203 206 209 210 213 215 217 218 218 222 227 231 231 225 219 215 215 214 215 217 220 227 234 242 244 236 229 228 232 241 248 250 250 248 248 250 252 253 248 247 253 265 281 291 302 311
214 137 137 193 187 173 201 198 185 188 204 232 142 191 217 211 257 285 244 229 223 212 213 209 202 206 206 199 197 200 202 203 203 205 206 208 209 209 209 209 209 208 206 204 203 204 205 204 202 203 203 204 207 209 211 212 214 217 216 215 218 222 225 223 218 212 209 208 209 211 213 220 228 235 240 239 232 226 227 233 241 246 245 249 256 253 251 254 255 252 250 253 261 276 286 293 300
182 138 186 216 176 156 171 227 194 124 162 236 195 221 272 262 283 316 342 202 188 181 193 197 196 197 196 195 197 200 202 203 205 206 207 209 209 209 210 211 210 209 207 205 204 205 204 203 202 203 204 206 208 210 211 212 214 217 216 214 215 219 221 218 212 208 207 208 211 210 213 220 226 231 233 231 228 225 225 228 236 246 257 272 275 266 260 259 256 255 255 257 266 277 287 293 295
178 201 204 187 129 122 130 181 45 88 191 251 195 193 222 195 233 307 351 156 179 179 183 191 191 187 191 197 199 201 203 205 206 207 208 209 209 210 211 212 212 211 209 207 207 207 205 204 204 204 205 207 209 211 212 214 215 217 217 215 214 216 219 215 207 204 207 211 213 210 211 217 222 226 224 220 219 217 215 221 234 253 268 275 275 270 268 266 263 263 265 268 275 282 290 295 297
207 214 181 152 164 222 158 173 181 158 205 255 253 220 208 194 215 246 212 190 190 185 177 180 182 184 193 199 200 202 204 205 207 207 208 209 210 211 212 213 214 213 212 210 209 208 207 207 207 207 209 210 211 212 214 216 217 218 218 217 215 215 216 212 204 203 209 211 211 209 209 212 215 215 212 208 207 205 209 221 237 256 266 270 271 269 270 271 270 270 272 276 281 284 289 293 294
207 151 163 151 166 181 180 171 166 176 196 216 268 287 238 225 216 202 204 195 175 168 174 182 186 188 194 198 200 201 203 206 207 208 209 210 211 213 214 215 216 215 215 213 210 210 210 210 210 210 212 214 215 216 217 218 219 219 219 219 217 215 214 211 203 203 208 209 208 208 206 205 205 202 199 197 197 196 204 215 230 251 264 271 269 266 269 273 271 269 273 282 287 287 288 291 294
185 192 206 194 137 150 175 180 145 150 166 174 201 249 257 249 211 193 203 189 169 172 179 187 189 189 194 198 200 201 203 206 209 210 211 212 213 214 215 217 217 217 216 214 212 212 213 213 213 213 214 215 217 218 219 221 221 220 220 221 219 215 212 209 204 204 208 206 207 207 202 198 197 194 189 186 186 186 192 205 223 242 262 270 264 261 267 268 263 267 277 284 286 285 286 293 299
184 197 206 189 162 133 158 228 245 123 158 172 171 219 261 257 204 197 201 181 178 183 181 183 185 187 193 197 201 204 205 208 211 212 213 214 214 215 215 216 216 215 215 214 214 215 215 216 216 216 216 217 219 221 222 223 223 223 222 221 220 215 211 208 204 204 206 205 207 206 201 197 192 188 186 181 182 185 192 209 225 239 255 263 263 262 263 263 265 272 276 278 281 285 290 297 301